Location: Newark
(43.9494°N, 6.8108°E)
Time: 22:33:58
(UTC+00:00)

Transit 4A - Visible Passes

Search period start: 17 October 2019 00:00
Search period end: 27 October 2019 00:00
Orbit: 866 x 978 km, 66.8° (Epoch: 16 October)

Date Brightness Start Highest point End Pass type
(mag) Time Alt. Az. Time Alt. Az. Time Alt. Az.
17 Oct 10.3 03:36:12 10° SSE 03:40:53 22° ESE 03:45:32 10° ENE visible
17 Oct 8.0 05:20:21 10° SW 05:26:41 71° WNW 05:32:57 10° NNE visible
18 Oct 9.6 03:44:28 10° S 03:50:00 32° ESE 03:55:27 10° NE visible
19 Oct 8.9 03:53:08 10° S 03:59:09 47° ESE 04:05:06 10° NE visible
20 Oct 10.7 02:22:02 10° ESE 02:23:10 10° E 02:24:16 10° E visible
20 Oct 8.3 04:02:06 10° SSW 04:08:25 67° ESE 04:14:36 10° NE visible
21 Oct 10.3 02:28:17 10° SE 02:32:08 17° ESE 02:35:57 10° ENE visible
21 Oct 7.9 04:11:35 11° SSW 04:17:43 87° WNW 04:23:59 10° NNE visible
22 Oct 9.8 02:38:34 19° SE 02:41:11 25° ESE 02:46:09 10° NE visible
22 Oct 8.0 04:22:10 17° SW 04:27:06 63° NW 04:33:18 10° NNE visible
23 Oct 9.2 02:48:53 33° SE 02:50:19 37° ESE 02:55:58 10° NE visible
23 Oct 8.3 04:32:28 20° WSW 04:36:35 45° NW 04:42:32 10° NNE visible
24 Oct 8.5 02:58:59 52° SE 02:59:31 53° ESE 03:05:34 10° NE visible
24 Oct 8.7 04:42:33 19° W 04:46:08 33° NW 04:51:44 10° NNE visible
25 Oct 10.6 01:25:21 11° E 01:25:21 11° E 01:25:56 10° ENE visible
25 Oct 8.0 03:08:54 76° ESE 03:08:54 76° ESE 03:15:01 10° NE visible
25 Oct 9.0 04:52:28 17° W 04:55:47 25° NW 05:00:51 10° NNE visible
26 Oct 10.4 01:35:09 15° ENE 01:35:09 15° ENE 01:36:42 10° ENE visible
26 Oct 7.9 03:18:42 71° N 03:18:42 71° N 03:24:22 10° NNE visible
26 Oct 9.3 05:02:15 14° WNW 05:05:30 20° NW 05:09:53 10° N visible
